TimeEET,TemperatureF,Dew PointF,Humidity,Sea Level PressureIn,VisibilityMPH,Wind Direction,Wind SpeedMPH,Gust SpeedMPH,PrecipitationIn,Events,Conditions,WindDirDegrees,DateUTC
12:00 AM,77.0,69.8,78,29.83,6.2,NNW,13.8,-,N/A,,Partly Cloudy,330,2013-07-24 22:00:00
1:00 AM,77.0,69.8,78,29.80,6.2,NW,12.7,-,N/A,,Partly Cloudy,320,2013-07-24 23:00:00
2:00 AM,77,69,71,29.82,6,NW,9.2,,,,,310,2013-07-25 00:00:00
2:00 AM,77.0,69.8,78,29.80,-9999.0,NW,9.2,-,N/A,,Clear,310,2013-07-25 00:00:00
3:00 AM,77.0,69.8,78,29.80,-9999.0,NNW,9.2,-,N/A,,Clear,330,2013-07-25 01:00:00
4:00 AM,77.0,69.8,78,29.80,-9999.0,NW,10.4,-,N/A,,Clear,320,2013-07-25 02:00:00
5:00 AM,77.0,68.0,74,29.80,-9999.0,NNW,6.9,-,N/A,,Clear,330,2013-07-25 03:00:00
6:00 AM,77.0,68.0,74,29.80,-9999.0,NW,9.2,-,N/A,,Clear,320,2013-07-25 04:00:00
7:00 AM,78.8,69.8,74,29.80,-9999.0,NW,6.9,-,N/A,,Clear,320,2013-07-25 05:00:00
8:00 AM,81,68,57,29.83,6,NNW,9.2,,,,,330,2013-07-25 06:00:00
8:00 AM,80.6,68.0,65,29.83,-9999.0,NNW,9.2,-,N/A,,Clear,330,2013-07-25 06:00:00
9:00 AM,82.4,68.0,62,29.83,-9999.0,NW,10.4,-,N/A,,Clear,310,2013-07-25 07:00:00
10:00 AM,84.2,68.0,58,29.83,-9999.0,WNW,9.2,-,N/A,,Clear,300,2013-07-25 08:00:00
11:00 AM,84.2,68.0,58,29.83,-9999.0,NW,11.5,-,N/A,,Clear,310,2013-07-25 09:00:00
12:00 PM,84.2,69.8,62,29.83,-9999.0,WNW,11.5,-,N/A,,Clear,300,2013-07-25 10:00:00
1:00 PM,86.0,69.8,58,29.80,-9999.0,NW,11.5,-,N/A,,Clear,310,2013-07-25 11:00:00
2:00 PM,85,70,53,29.80,6,WNW,11.5,,,,,300,2013-07-25 12:00:00
3:00 PM,86.0,73.4,66,29.77,-9999.0,NW,12.7,-,N/A,,Clear,310,2013-07-25 13:00:00
4:00 PM,84.2,71.6,66,29.77,-9999.0,NW,11.5,-,N/A,,Clear,310,2013-07-25 14:00:00
5:00 PM,84.2,73.4,70,29.77,-9999.0,NW,12.7,-,N/A,,Clear,310,2013-07-25 15:00:00
6:00 PM,80.6,71.6,74,29.77,-9999.0,NNW,11.5,-,N/A,,Clear,340,2013-07-25 16:00:00
7:00 PM,78.8,71.6,78,29.77,-9999.0,NW,11.5,-,N/A,,Clear,320,2013-07-25 17:00:00
8:00 PM,78,72,75,29.78,6,NNW,9.2,,,,,330,2013-07-25 18:00:00
8:00 PM,78.8,71.6,78,29.77,-9999.0,NNW,9.2,-,N/A,,Clear,330,2013-07-25 18:00:00
9:00 PM,77.0,71.6,83,29.77,-9999.0,WNW,9.2,-,N/A,,Clear,300,2013-07-25 19:00:00
10:00 PM,77.0,71.6,83,29.74,-9999.0,WNW,9.2,-,N/A,,Clear,300,2013-07-25 20:00:00
11:00 PM,77.0,71.6,83,29.77,-9999.0,WNW,6.9,-,N/A,,Clear,300,2013-07-25 21:00:00